Location: Newark
(9.4667°S, 159.8167°E)
Time: 04:40:34
(UTC+00:00)

Vanguard 1 - Pass Details

Date: 17 November 2019
Orbit: 651 x 3832 km, 34.3° (Epoch: 11 December)

Event Time Altitude Azimuth Distance (km) Brightness Sun altitude
Rises 17:18:36 0° 233° (SW) 7,605 14.3 -21.5°
Reaches altitude 10° 17:23:49 10° 228° (SW) 6,784 14.1 -20.3°
Maximum altitude 17:47:02 56° 153° (SSE) 4,043 13.4 -15.1°
Drops below altitude 10° 18:04:45 10° 78° (ENE) 5,423 14.8 -11.0°
Sets 18:08:18 0° 73° (ENE) 6,080 15.0 -10.2°
